Satellite: FO-70
Catalog number: 37380
Epoch time:      11362.52442212
Element set:    0064
Inclination:      071.9748 deg
RA of node:       331.0410 deg
Eccentricity:    0.0019461
Arg of perigee:   275.6214 deg
Mean anomaly:     084.2706 deg
Mean motion:   14.76627493 rev/day
Decay rate:       7.87e-06 rev/day^2
Epoch rev:           01064
Checksum:              288

/EX
SB KEPS @ AMSAT  $ORB11363.W
Orbital Elements  11363.WEATHER

HR AMSAT ORBITAL ELEMENTS FOR WEATHER SATELLITES
FROM WA5QGD FORT WORTH,TX December 29, 2011
Send Subscribe/unsubscribe to KEPS at http://www.amsat.org/mailman/listinfo/kep
BID: ORB11363.W
TO ALL RADIO AMATEURS BT

Satellite: NOAA-10
Catalog number: 16969
Epoch time:      11362.71852919
Element set:    0764
Inclination:      098.6007 deg
RA of node:       029.6673 deg
Eccentricity:    0.0012729
Arg of perigee:   019.6144 deg
Mean anomaly:     340.5523 deg
Mean motion:   14.27515881 rev/day
Decay rate:        3.5e-07 rev/day^2
Epoch rev:           31540
Checksum:              309

Satellite: NOAA-11
Catalog number: 19531
Epoch time:      11362.80698569
Element set:    0760
Inclination:      098.7442 deg
RA of node:       086.5122 deg
Eccentricity:    0.0011379
Arg of perigee:   357.4556 deg
Mean anomaly:     002.6575 deg
Mean motion:   14.14946467 rev/day
Decay rate:       -4.0e-08 rev/day^2
Epoch rev:           20027
Checksum:              311

Satellite: NOAA-12
Catalog number: 21263
Epoch time:      11362.99114427
Element set:    0268
Inclination:      098.7411 deg
RA of node:       020.3586 deg
Eccentricity:    0.0013705
Arg of perigee:   342.3844 deg
Mean anomaly:     017.6860 deg
Mean motion:   14.25468329 rev/day
Decay rate:        9.4e-07 rev/day^2
Epoch rev:           07216
Checksum:              293

Satellite: MET-3/5
Catalog number: 21655
Epoch time:      11362.68900538
Element set:    0298
Inclination:      082.5591 deg
RA of node:       273.3432 deg
Eccentricity:    0.0014268
Arg of perigee:   034.7684 deg
Mean anomaly:     325.4342 deg
Mean motion:   13.17033667 rev/day
Decay rate:        5.1e-07 rev/day^2
Epoch rev:           97932
Checksum:              312

Satellite: MET-2/21
Catalog number: 22782
Epoch time:      11362.56030377
Element set:    0295
Inclination:      082.5456 deg
RA of node:       168.6723 deg
Eccentricity:    0.0021101
Arg of perigee:   274.6500 deg
Mean anomaly:     085.2261 deg
Mean motion:   13.83671816 rev/day
Decay rate:       -2.0e-07 rev/day^2
Epoch rev:           92543
Checksum:              283

Satellite: OKEAN-4
Catalog number: 23317
Epoch time:      11363.87292754
Element set:     762
Inclination:      082.5393 deg
RA of node:       190.3720 deg
Eccentricity:    0.0020975
Arg of perigee:   190.0465 deg
Mean anomaly:     170.0335 deg
Mean motion:   14.83488951 rev/day
Decay rate:       9.49e-06 rev/day^2
Epoch rev:           92955
Checksum:              325

Satellite: NOAA-14
Catalog number: 23455
Epoch time:      11362.93335728
Element set:    0749
Inclination:      098.8392 deg
RA of node:       083.5178 deg
Eccentricity:    0.0010209
Arg of perigee:   085.9823 deg
Mean anomaly:     274.2513 deg
Mean motion:   14.13866456 rev/day
Decay rate:        7.4e-07 rev/day^2
Epoch rev:           87659
Checksum:              340

Satellite: NOAA-15
Catalog number: 25338
Epoch time:      11362.73705186
Element set:    0080
Inclination:      098.6741 deg
RA of node:       346.4162 deg
Eccentricity:    0.0009793
Arg of perigee:   245.8165 deg
Mean anomaly:     114.1989 deg
Mean motion:   14.25011214 rev/day
Decay rate:        2.3e-07 rev/day^2
Epoch rev:           70843
Checksum:              297

Satellite: RESURS
Catalog number: 25394
Epoch time:      11363.90209008
Element set:     977
Inclination:      098.3075 deg
RA of node:       356.2250 deg
Eccentricity:    0.0002181
Arg of perigee:   037.9287 deg
Mean anomaly:     322.2047 deg
Mean motion:   14.24266301 rev/day
Decay rate:        4.9e-07 rev/day^2
Epoch rev:           70016
Checksum:              277

Satellite: FENGYUN1
Catalog number: 25730
Epoch time:      11362.90503715
Element set:     502
Inclination:      098.8324 deg
RA of node:       320.0326 deg
Eccentricity:    0.0021479
Arg of perigee:   131.0537 deg
Mean anomaly:     229.2486 deg
Mean motion:   14.09128302 rev/day
Decay rate:       3.90e-06 rev/day^2
Epoch rev:           65048
Checksum:              268

Satellite: OKEAN-0
Catalog number: 25860
Epoch time:      11362.93682957
Element set:    0519
Inclination:      097.9116 deg
RA of node:       324.3466 deg
Eccentricity:    0.0001909
Arg of perigee:   070.8543 deg
Mean anomaly:     289.2869 deg
Mean motion:   14.74032327 rev/day
Decay rate:       5.91e-06 rev/day^2
Epoch rev:           66934
Checksum:              335

Satellite: NOAA-16
Catalog number: 26536
Epoch time:      11362.71233835
Element set:    0563
Inclination:      099.1178 deg
RA of node:       036.9974 deg
Eccentricity:    0.0010320
Arg of perigee:   202.9528 deg
Mean anomaly:     157.1160 deg
Mean motion:   14.12691289 rev/day
Decay rate:       2.54e-06 rev/day^2
Epoch rev:           58082
Checksum:              303

